H1 CPF 2 NER 2025 10 29 9 302 01 glonass129 H2 1106402 9129 37868 2025 10 29 0 0 0 2025 11 1 23 45 0 900 1 1 0 0 0 1 H9 10 0 60977 0.00000 0 -12105780.777 2812319.429 22301702.877 10 0 60977 900.00000 0 -14157107.720 1087903.681 21211455.248 10 0 60977 1800.00000 0 -16204630.588 -383546.839 19710090.563 10 0 60977 2700.00000 0 -18182787.697 -1584609.654 17826420.655 10 0 60977 3600.00000 0 -20025540.335 -2510559.706 15596711.001 10 0 60977 4500.00000 0 -21669046.632 -3169338.866 13064002.505 10 0 60977 5400.00000 0 -23054269.909 -3580988.402 10277297.264 10 0 60977 6300.00000 0 -24129411.960 -3776566.962 7290622.215 10 0 60977 7200.00000 0 -24852068.009 -3796598.455 4161987.551 10 0 60977 8100.00000 0 -25191010.871 -3689114.638 952259.426 10 0 60977 9000.00000 0 -25127526.868 -3507375.055 -2276031.038 10 0 60977 9900.00000 0 -24656244.630 -3307361.463 -5459918.454 10 0 60977 10800.00000 0 -23785419.355 -3145154.284 -8537248.217 10 0 60977 11700.00000 0 -22536658.461 -3074304.333 -11447909.729 10 0 60977 12600.00000 0 -20944098.739 -3143313.768 -14135031.550 10 0 60977 13500.00000 0 -19053068.958 -3393335.819 -16546112.938 10 0 60977 14400.00000 0 -16918294.309 -3856193.485 -18634067.612 10 0 60977 15300.00000 0 -14601719.002 -4552803.580 -20358157.577 10 0 60977 16200.00000 0 -12170039.817 -5492074.745 -21684797.540 10 0 60977 17100.00000 0 -9692055.613 -6670327.390 -22588213.464 10 0 60977 18000.00000 0 -7235945.534 -8071260.693 -23050942.262 10 0 60977 18900.00000 0 -4866591.079 -9666468.126 -23064163.260 10 0 60977 19800.00000 0 -2643054.810 -11416479.243 -22627855.813 10 0 60977 20700.00000 0 -616321.146 -13272282.994 -21750781.234 10 0 60977 21600.00000 0 1172607.143 -15177267.412 -20450290.810 10 0 60977 22500.00000 0 2694178.798 -17069493.037 -18751965.284 10 0 60977 23400.00000 0 3931271.190 -18884203.676 -16689094.420 10 0 60977 24300.00000 0 4879636.764 -20556468.459 -14302008.374 10 0 60977 25200.00000 0 5547803.484 -22023844.180 -11637275.262 10 0 60977 26100.00000 0 5956436.892 -23228946.506 -8746781.782 10 0 60977 27000.00000 0 6137193.917 -24121823.035 -5686715.731 10 0 60977 27900.00000 0 6131119.584 -24662029.941 -2516470.799 10 0 60977 28800.00000 0 5986656.422 -24820326.766 702504.708 10 0 60977 29700.00000 0 5757352.091 -24579920.094 3907892.923 10 0 60977 30600.00000 0 5499362.663 -23937205.885 7037702.718 10 0 60977 31500.00000 0 5268856.902 -22901981.024 10031454.797 10 0 60977 32400.00000 0 5119430.373 -21497116.549 12831333.813 10 0 60977 33300.00000 0 5099637.266 -19757706.989 15383286.674 10 0 60977 34200.00000 0 5250742.551 -17729731.491 17638047.446 10 0 60977 35100.00000 0 5604787.691 -15468281.997 19552070.837 10 0 60977 36000.00000 0 6183050.132 -13035431.037 21088358.037 10 0 60977 36900.00000 0 6994960.676 -10497826.032 22217160.503 10 0 60977 37800.00000 0 8037524.208 -7924107.832 22916549.427 10 0 60977 38700.00000 0 9295268.941 -5382258.188 23172840.686 10 0 60977 39600.00000 0 10740727.914 -2936983.819 22980867.331 10 0 60977 40500.00000 0 12335434.948 -647243.364 22344093.997 10 0 60977 41400.00000 0 14031396.274 1435981.877 21274570.001 10 0 60977 42300.00000 0 15772979.342 3271582.010 19792720.498 10 0 60977 43200.00000 0 17499142.881 4829799.158 17926977.686 10 0 60977 44100.00000 0 19145917.574 6093232.810 15713256.900 10 0 60977 45000.00000 0 20649035.458 7057327.234 13194285.330 10 0 60977 45900.00000 0 21946599.051 7730319.441 10418794.143 10 0 60977 46800.00000 0 22981678.385 8132648.627 7440587.732 10 0 60977 47700.00000 0 23704726.051 8295850.648 4317506.847 10 0 60977 48600.00000 0 24075707.053 8260983.206 1110305.023 10 0 60977 49500.00000 0 24065851.479 8076647.798 -2118539.806 10 0 60977 50400.00000 0 23658953.409 7796692.327 -5306054.621 10 0 60977 51300.00000 0 22852158.562 7477692.578 -8390016.212 10 0 60977 52200.00000 0 21656204.864 7176320.930 -11310185.563 10 0 60977 53100.00000 0 20095103.798 6946716.022 -14009505.461 10 0 60977 54000.00000 0 18205274.567 6837967.414 -16435235.723 10 0 60977 54900.00000 0 16034166.922 6891824.456 -18540001.828 10 0 60977 55800.00000 0 13638430.803 7140728.878 -20282734.670 10 0 60977 56700.00000 0 11081710.449 7606256.431 -21629481.779 10 0 60977 57600.00000 0 8432156.763 8298034.954 -22554073.438 10 0 60977 58500.00000 0 5759763.622 9213185.415 -23038630.451 10 0 60977 59400.00000 0 3133640.897 10336309.624 -23073904.057 10 0 60977 60300.00000 0 619339.130 11640024.690 -22659442.143 10 0 60977 61200.00000 0 -1723661.967 13086020.687 -21803579.754 10 0 60977 62100.00000 0 -3844196.686 14626595.773 -20523255.501 10 0 60977 63000.00000 0 -5701295.710 16206602.751 -18843659.083 10 0 60977 63900.00000 0 -7265631.000 17765723.905 -16797718.382 10 0 60977 64800.00000 0 -8520465.467 19240977.442 -14425437.719 10 0 60977 65700.00000 0 -9462070.852 20569349.507 -11773101.540 10 0 60977 66600.00000 0 -10099599.731 21690441.022 -8892360.287 10 0 60977 67500.00000 0 -10454420.489 22549018.456 -5839217.184 10 0 60977 68400.00000 0 -10558946.421 23097362.220 -2672936.290 10 0 60977 69300.00000 0 -10455010.930 23297315.288 545106.599 10 0 60977 70200.00000 0 -10191859.304 23121947.597 3752607.919 10 0 60977 71100.00000 0 -9823842.991 22556768.003 6887532.636 10 0 60977 72000.00000 0 -9407914.023 21600434.569 9889300.418 10 0 60977 72900.00000 0 -9001024.928 20264934.723 12699939.851 10 0 60977 73800.00000 0 -8657542.793 18575228.579 15265189.827 10 0 60977 74700.00000 0 -8426785.050 16568370.579 17535528.434 10 0 60977 75600.00000 0 -8350779.154 14292145.688 19467111.279 10 0 60977 76500.00000 0 -8462338.907 11803275.786 21022602.878 10 0 60977 77400.00000 0 -8783537.103 9165269.172 22171886.687 10 0 60977 78300.00000 0 -9324638.034 6446000.246 22892641.326 10 0 60977 79200.00000 0 -10083534.751 3715117.243 23170772.769 10 0 60977 80100.00000 0 -11045715.594 1041382.899 23000694.377 10 0 60977 81000.00000 0 -12184763.071 -1509944.188 22385449.101 10 0 60977 81900.00000 0 -13463366.539 -3879581.084 21336670.460 10 0 60977 82800.00000 0 -14834809.012 -6016443.915 19874381.559 10 0 60977 83700.00000 0 -16244868.730 -7879531.710 18026634.018 10 0 60977 84600.00000 0 -17634058.555 -9439392.551 15828991.481 10 0 60977 85500.00000 0 -18940111.530 -10679110.470 13323865.327 10 0 60978 0.00000 0 -20100609.731 -11594770.858 10559713.470 10 0 60978 900.00000 0 -21055647.189 -12195384.089 7590114.277 10 0 60978 1800.00000 0 -21750413.002 -12502268.060 4472736.001 10 0 60978 2700.00000 0 -22137586.637 -12547916.101 1268216.050 10 0 60978 3600.00000 0 -22179440.823 -12374395.926 -1961024.481 10 0 60978 4500.00000 0 -21849561.317 -12031347.617 -5152008.636 10 0 60978 5400.00000 0 -21134107.947 -11573665.757 -8242448.297 10 0 60978 6300.00000 0 -20032560.860 -11058965.031 -11171979.652 10 0 60978 7200.00000 0 -18557917.940 -10544938.487 -13883363.172 10 0 60978 8100.00000 0 -16736333.130 -10086722.669 -16323622.447 10 0 60978 9000.00000 0 -14606209.639 -9734383.670 -18445097.587 10 0 60978 9900.00000 0 -12216785.758 -9530633.025 -20206390.774 10 0 60978 10800.00000 0 -9626272.944 -9508872.158 -21573184.215 10 0 60978 11700.00000 0 -6899625.116 -9691649.711 -22518913.723 10 0 60978 12600.00000 0 -4106033.819 -10089597.845 -23025284.559 10 0 60978 13500.00000 0 -1316255.293 -10700892.664 -23082619.789 10 0 60978 14400.00000 0 1400117.760 -11511261.074 -22690035.164 10 0 60978 15300.00000 0 3977325.121 -12494532.750 -21855438.295 10 0 60978 16200.00000 0 6355937.269 -13613712.513 -20595353.549 10 0 60978 17100.00000 0 8485079.358 -14822526.306 -18934577.685 10 0 60978 18000.00000 0 10324289.528 -16067373.985 -16905674.558 10 0 60978 18900.00000 0 11844936.206 -17289605.220 -14548320.303 10 0 60978 19800.00000 0 13031137.937 -18428021.592 -11908513.183 10 0 60978 20700.00000 0 13880150.481 -19421498.863 -9037664.725 10 0 60978 21600.00000 0 14402208.397 -20211618.927 -5991590.821 10 0 60978 22500.00000 0 14619831.071 -20745201.070 -2829423.074 10 0 60978 23400.00000 0 14566625.378 -20976626.927 387538.076 10 0 60978 24300.00000 0 14285637.771 -20869862.583 3597006.169 10 0 60978 25200.00000 0 13827326.900 -20400094.305 6736904.977 10 0 60978 26100.00000 0 13247243.074 -19554910.662 9746555.677 10 0 60978 27000.00000 0 12603512.420 -18334982.755 12567833.130 10 0 60978 27900.00000 0 11954231.032 -16754214.944 15146270.312 10 0 60978 28800.00000 0 11354877.652 -14839360.149 17432091.161 10 0 60978 29700.00000 0 10855852.069 -12629115.509 19381153.699 10 0 60978 30600.00000 0 10500241.081 -10172735.084 20955786.994 10 0 60978 31500.00000 0 10321904.228 -7528215.718 22125507.386 10 0 60978 32400.00000 0 10343958.521 -4760129.236 22867601.505 10 0 60978 33300.00000 0 10577725.111 -1937188.285 23167565.680 10 0 60978 34200.00000 0 11022182.244 870355.974 23019393.552 10 0 60978 35100.00000 0 11663948.356 3593379.261 22425706.071 10 0 60978 36000.00000 0 12477797.682 6166504.623 21397720.394 10 0 60978 36900.00000 0 13427689.010 8530571.222 19955056.788 10 0 60978 37800.00000 0 14468267.026 10634850.273 18125385.287 10 0 60978 38700.00000 0 15546775.889 12438916.653 15943916.635 10 0 60978 39600.00000 0 16605307.050 13914098.037 13452744.997 10 0 60978 40500.00000 0 17583288.657 15044440.362 10700052.898 10 0 60978 41400.00000 0 18420112.842 15827148.033 7739191.842 10 0 60978 42300.00000 0 19057790.351 16272478.949 4627655.060 10 0 60978 43200.00000 0 19443519.706 16403097.393 1425961.587 10 0 60978 44100.00000 0 19532060.802 16252910.918 -1803526.726 10 0 60978 45000.00000 0 19287810.234 15865439.696 -4997831.500 10 0 60978 45900.00000 0 18686487.828 15291787.253 -8094602.246 10 0 60978 46800.00000 0 17716360.089 14588299.165 -11033352.843 10 0 60978 47700.00000 0 16378946.045 13814010.218 -13756663.826 10 0 60978 48600.00000 0 14689173.227 13027990.016 -16211324.784 10 0 60978 49500.00000 0 12674975.406 12286701.666 -18349392.496 10 0 60978 50400.00000 0 10376347.945 11641487.653 -20129142.295 10 0 60978 51300.00000 0 7843900.148 11136291.307 -21515892.747 10 0 60978 52200.00000 0 5136965.709 10805711.911 -22482686.719 10 0 60978 53100.00000 0 2321351.310 10673476.616 -23010815.256 10 0 60978 54000.00000 0 -533181.310 10751394.017 -23090174.374 10 0 60978 54900.00000 0 -3355593.499 11038833.151 -22719448.538 10 0 60978 55800.00000 0 -6076295.293 11522748.807 -21906118.447 10 0 60978 56700.00000 0 -8629804.360 12178250.505 -20666294.367 10 0 60978 57600.00000 0 -10957227.622 12969689.266 -19024379.856 10 0 60978 58500.00000 0 -13008462.926 13852214.329 -17012574.077 10 0 60978 59400.00000 0 -14744030.573 14773732.308 -14670223.948 10 0 60978 60300.00000 0 -16136460.574 15677184.569 -12043040.188 10 0 60978 61200.00000 0 -17171180.463 16503045.658 -9182193.778 10 0 60978 62100.00000 0 -17846869.725 17191936.791 -6143311.433 10 0 60978 63000.00000 0 -18175269.268 17687244.200 -2985390.254 10 0 60978 63900.00000 0 -18180457.024 17937632.420 230346.878 10 0 60978 64800.00000 0 -17897622.840 17899347.593 3441632.980 10 0 60978 65700.00000 0 -17371396.235 17538215.023 6586353.146 10 0 60978 66600.00000 0 -16653798.732 16831248.359 9603732.734 10 0 60978 67500.00000 0 -15801907.432 15767804.036 12435495.676 10 0 60978 68400.00000 0 -14875327.831 14350233.573 15026971.909 10 0 60978 69300.00000 0 -13933581.222 12594006.895 17328134.130 10 0 60978 70200.00000 0 -13033514.954 10527301.476 19294545.651 10 0 60978 71100.00000 0 -12226842.506 8190073.585 20888202.843 10 0 60978 72000.00000 0 -11557914.778 5632648.921 22078257.508 10 0 60978 72900.00000 0 -11061814.415 2913889.057 22841606.582 10 0 60978 73800.00000 0 -10762851.829 99007.254 23163338.717 10 0 60978 74700.00000 0 -10673525.412 -2742878.637 23037029.400 10 0 60978 75600.00000 0 -10793989.624 -5541357.685 22464878.697 10 0 60978 76500.00000 0 -11112054.216 -8227396.318 21457688.016 10 0 60978 77400.00000 0 -11603716.190 -10735959.243 20034674.870 10 0 60978 78300.00000 0 -12234204.281 -13008473.779 18223127.246 10 0 60978 79200.00000 0 -12959494.475 -14995036.199 16057901.991 10 0 60978 80100.00000 0 -13728235.150 -16656268.367 13580774.538 10 0 60978 81000.00000 0 -14484002.824 -17964746.719 10839650.302 10 0 60978 81900.00000 0 -15167794.828 -18905942.774 7887651.026 10 0 60978 82800.00000 0 -15720654.332 -19478634.209 4782092.425 10 0 60978 83700.00000 0 -16086316.511 -19694767.695 1583372.136 10 0 60978 84600.00000 0 -16213762.765 -19578777.772 -1646210.482 10 0 60978 85500.00000 0 -16059572.876 -19166389.414 -4843679.043 10 0 60979 0.00000 0 -15589973.011 -18502954.422 -7946623.952 10 0 60979 900.00000 0 -14782489.590 -17641391.756 -10894440.950 10 0 60979 1800.00000 0 -13627136.778 -16639820.765 -13629533.940 10 0 60979 2700.00000 0 -12127083.787 -15558987.751 -16098461.986 10 0 60979 3600.00000 0 -10298772.088 -14459597.508 -18253001.787 10 0 60979 4500.00000 0 -8171475.811 -13399664.530 -20051104.731 10 0 60979 5400.00000 0 -5786322.939 -12431997.932 -21457728.180 10 0 60979 6300.00000 0 -3194818.262 -11601928.068 -22445523.922 10 0 60979 7200.00000 0 -456930.494 -10945371.969 -22995370.056 10 0 60979 8100.00000 0 2361175.514 -10487319.713 -23096736.183 10 0 60979 9000.00000 0 5189665.589 -10240805.228 -22747875.536 10 0 60979 9900.00000 0 7957715.529 -10206403.906 -21955841.422 10 0 60979 10800.00000 0 10596230.385 -10372276.535 -20736329.066 10 0 60979 11700.00000 0 13040490.073 -10714755.603 -19113347.493 10 0 60979 12600.00000 0 15232611.359 -11199446.887 -17118729.483 10 0 60979 13500.00000 0 17123724.615 -11782797.581 -14791490.711 10 0 60979 14400.00000 0 18675776.255 -12414062.646 -12177052.011 10 0 60979 15300.00000 0 19862883.929 -13037584.711 -9326341.183 10 0 60979 16200.00000 0 20672190.592 -13595290.108 -6294792.843 10 0 60979 17100.00000 0 21104184.806 -14029295.091 -3141266.469 10 0 60979 18000.00000 0 21172476.855 -14284512.285 73095.884 10 0 60979 18900.00000 0 20903042.915 -14311147.927 3286050.012 10 0 60979 19800.00000 0 20332971.341 -14066985.640 6435445.569 10 0 60979 20700.00000 0 19508765.415 -13519361.701 9460415.165 10 0 60979 21600.00000 0 18484274.790 -12646749.998 12302534.620 10 0 60979 22500.00000 0 17318342.607 -11439891.147 14906933.329 10 0 60979 23400.00000 0 16072266.454 -9902419.116 17223334.897 10 0 60979 24300.00000 0 14807178.405 -8050959.263 19207009.707 10 0 60979 25200.00000 0 13581452.250 -5914693.144 20819622.843 10 0 60979 26100.00000 0 12448244.584 -3534407.017 22029962.607 10 0 60979 27000.00000 0 11453270.800 -961061.709 22814536.934 10 0 60979 27900.00000 0 10632907.359 1746059.247 23158027.134 10 0 60979 28800.00000 0 10012698.618 4521549.158 23053590.537 10 0 60979 29700.00000 0 9606330.127 7296337.276 22503005.992 10 0 60979 30600.00000 0 9415111.585 10000308.439 21516658.516 10 0 60979 31500.00000 0 9427992.008 12564977.208 20113361.931 10 0 60979 32400.00000 0 9622107.990 14926107.573 18320020.976 10 0 60979 33300.00000 0 9963843.944 17026170.732 16171137.147 10 0 60979 34200.00000 0 10410361.854 18816539.141 13708165.469 10 0 60979 35100.00000 0 10911538.082 20259325.081 10978732.338 10 0 60979 36000.00000 0 11412227.124 21328785.974 8035727.637 10 0 60979 36900.00000 0 11854757.665 22012236.060 4936287.254 10 0 60979 37800.00000 0 12181555.482 22310424.438 1740684.963 10 0 60979 38700.00000 0 12337781.453 22237361.805 -1488844.943 10 0 60979 39600.00000 0 12273871.303 21819601.677 -4689330.701 10 0 60979 40500.00000 0 11947867.188 21095005.417 -7798306.766 10 0 60979 41400.00000 0 11327439.516 20111042.846 -10755052.120 10 0 60979 42300.00000 0 10391510.361 18922700.610 -13501796.957 10 0 60979 43200.00000 0 9131406.839 17590087.724 -15984871.973 10 0 60979 44100.00000 0 7551493.061 16175841.059 -18155775.739 10 0 60979 45000.00000 0 5669251.948 14742442.292 -19972137.433 10 0 60979 45900.00000 0 3514812.081 13349561.565 -21398554.749 10 0 60979 46800.00000 0 1129938.818 12051541.710 -22407289.741 10 0 60979 47700.00000 0 -1433467.916 10895130.444 -22978808.681 10 0 60979 48600.00000 0 -4115305.658 9917556.750 -23102155.632 10 0 60979 49500.00000 0 -6849549.483 9145032.354 -22775153.166 10 0 60979 50400.00000 0 -9566783.798 8591740.518 -22004427.423 10 0 60979 51300.00000 0 -12196879.202 8259353.091 -20805258.418 10 0 60979 52200.00000 0 -14671702.153 8137093.953 -19201260.062 10 0 60979 53100.00000 0 -16927744.297 8202343.603 -17223897.790 10 0 60979 54000.00000 0 -18908562.270 8421756.682 -14911854.738 10 0 60979 54900.00000 0 -20566927.369 8752842.708 -12310260.295 10 0 60979 55800.00000 0 -21866597.080 9145941.020 -9469797.321 10 0 60979 56700.00000 0 -22783636.769 9546504.766 -6445706.451 10 0 60979 57600.00000 0 -23307238.918 9897596.315 -3296707.559 10 0 60979 58500.00000 0 -23440008.449 10142488.161 -83859.797 10 0 60979 59400.00000 0 -23197704.912 10227259.614 3130617.572 10 0 60979 60300.00000 0 -22608454.808 10103280.300 6284541.038 10 0 60979 61200.00000 0 -21711468.983 9729476.765 9316952.860 10 0 60979 62100.00000 0 -20555320.151 9074287.892 12169283.244 10 0 60979 63000.00000 0 -19195853.235 8117228.022 14786463.641 10 0 60979 63900.00000 0 -17693815.823 6849993.020 17117971.174 10 0 60979 64800.00000 0 -16112306.991 5277063.354 19118785.873 10 0 60979 65700.00000 0 -14514149.653 3415778.719 20750243.989 10 0 60979 66600.00000 0 -12959294.401 1295880.205 21980772.576 10 0 60979 67500.00000 0 -11502361.228 -1041462.564 22786492.555 10 0 60979 68400.00000 0 -10190419.831 -3545101.143 23151679.556 10 0 60979 69300.00000 0 -9061099.532 -6155777.337 23069074.056 10 0 60979 70200.00000 0 -8141106.671 -8808337.126 22540034.605 10 0 60979 71100.00000 0 -7445210.924 -11434200.693 21574530.336 10 0 60979 72000.00000 0 -6975743.204 -13963988.843 20190971.466 10 0 60979 72900.00000 0 -6722627.043 -16330199.219 18415879.140 10 0 60979 73800.00000 0 -6663943.555 -18469822.722 16283398.740 10 0 60979 74700.00000 0 -6767008.003 -20326792.123 13834663.695 10 0 60979 75600.00000 0 -6989914.434 -21854160.799 11117019.826 10 0 60979 76500.00000 0 -7283484.898 -23015919.794 8183123.237 10 0 60979 77400.00000 0 -7593542.048 -23788375.706 5089927.782 10 0 60979 78300.00000 0 -7863409.461 -24161029.717 1897580.902 10 0 60979 79200.00000 0 -8036533.477 -24136918.838 -1331750.882 10 0 60979 80100.00000 0 -8059114.234 -23732403.051 -4535103.342 10 0 60979 81000.00000 0 -7882632.410 -22976405.826 -7649957.793 10 0 60979 81900.00000 0 -7466161.982 -21909139.108 -10615480.264 10 0 60979 82800.00000 0 -6778368.046 -20580366.390 -13373730.278 10 0 60979 83700.00000 0 -5799102.117 -19047277.668 -15870813.499 10 0 60979 84600.00000 0 -4520524.580 -17372067.174 -18057953.596 10 0 60979 85500.00000 0 -2947704.511 -15619317.661 -19892460.544 10 0 60980 0.00000 0 -1098669.974 -13853303.550 -21338574.922 10 0 60980 900.00000 0 996095.433 -12135327.386 -22368171.524 10 0 60980 1800.00000 0 3294686.472 -10521205.565 -22961306.347 10 0 60980 2700.00000 0 5745300.210 -9059006.867 -23106599.072 10 0 60980 3600.00000 0 8288183.094 -7787141.383 -22801442.226 10 0 60980 4500.00000 0 10857919.577 -6732878.634 -22052034.890 10 0 60980 5400.00000 0 13385965.470 -5911355.836 -20873241.506 10 0 60980 6300.00000 0 15803319.339 -5325115.897 -19288280.086 10 0 60980 7200.00000 0 18043219.879 -4964191.895 -17328247.507 10 0 60980 8100.00000 0 20043756.677 -4806731.520 -15031492.755 10 0 60980 9000.00000 0 21750285.959 -4820132.163 -12442851.750 10 0 60980 9900.00000 0 23117551.609 -4962635.983 -9612759.992 10 0 60980 10800.00000 0 24111424.580 -5185315.254 -6596261.342 10 0 60980 11700.00000 0 24710190.212 -5434362.388 -3451932.959 10 0 60980 12600.00000 0 24905332.047 -5653586.757 -240747.783 10 0 60980 13500.00000 0 24701781.885 -5787012.447 2975103.287 10 0 60980 14400.00000 0 24117628.013 -5781467.460 6133406.991 10 0 60980 15300.00000 0 23183295.823 -5589055.818 9173118.502 10 0 60980 16200.00000 0 21940236.612 -5169409.402 12035525.474 10 0 60980 17100.00000 0 20439180.188 -4491625.898 14665364.156 10 0 60980 18000.00000 0 18738024.437 -3535812.405 17011867.614 10 0 60980 18900.00000 0 16899449.346 -2294170.649 19029727.583 10 0 60980 19800.00000 0 14988353.775 -771578.479 20679953.189 10 0 60980 20700.00000 0 13069220.127 1014357.153 21930611.600 10 0 60980 21600.00000 0 11203514.681 3033779.181 22757437.725 10 0 60980 22500.00000 0 9447229.768 5245573.404 23144302.172 10 0 60980 23400.00000 0 7848668.242 7598836.637 23083528.852 10 0 60980 24300.00000 0 6446561.005 10034761.994 22576055.925 10 0 60980 25200.00000 0 5268595.050 12488866.109 21631436.173 10 0 60980 26100.00000 0 4330413.119 14893468.780 20267675.371 10 0 60980 27000.00000 0 3635127.088 17180324.649 18510909.882 10 0 60980 27900.00000 0 3173366.347 19283299.521 16394927.456 10 0 60980 28800.00000 0 2923860.486 21140981.083 13960538.125 10 0 60980 29700.00000 0 2854533.373 22699115.521 11254805.066 10 0 60980 30600.00000 0 2924064.049 23912767.713 8330148.311 10 0 60980 31500.00000 0 3083849.826 24748113.247 5243337.182 10 0 60980 32400.00000 0 3280289.290 25183785.255 2054390.123 10 0 60980 33300.00000 0 3457288.567 25211717.272 -1174596.890 10 0 60980 34200.00000 0 3558883.839 24837444.392 -4380669.983 10 0 60980 35100.00000 0 3531867.350 24079848.070 -7501260.129 10 0 60980 36000.00000 0 3328303.255 22970353.796 -10475423.082 10 0 60980 36900.00000 0 2907823.933 21551614.681 -13245050.219 10 0 60980 37800.00000 0 2239606.517 19875736.351 -15756024.472 10 0 60980 38700.00000 0 1303943.062 18002118.647 -17959296.683 10 0 60980 39600.00000 0 93335.378 15995006.301 -19811859.453 10 0 60980 40500.00000 0 -1386933.727 13920853.324 -21277598.054 10 0 60980 41400.00000 0 -3118778.343 11845613.702 -22328000.837 10 0 60980 42300.00000 0 -5071838.055 9832073.857 -22942714.894 10 0 60980 43200.00000 0 -7204535.102 7937340.036 -23109936.284 10 0 60980 44100.00000 0 -9465615.203 6210586.561 -22826627.901 10 0 60980 45000.00000 0 -11796106.551 4691159.143 -22098561.773 10 0 60980 45900.00000 0 -14131613.881 3407111.692 -20940186.340 10 0 60980 46800.00000 0 -16404850.587 2374236.088 -19374322.834 10 0 60980 47700.00000 0 -18548302.179 1595623.101 -17431698.299 10 0 60980 48600.00000 0 -20496909.323 1061769.827 -15150325.935 10 0 60980 49500.00000 0 -22190658.408 751225.910 -12574746.293 10 0 60980 50400.00000 0 -23576971.981 631748.109 -9755145.427 10 0 60980 51300.00000 0 -24612800.288 661911.660 -6746368.234 10 0 60980 52200.00000 0 -25266328.174 793108.062 -3606846.908 10 0 60980 53100.00000 0 -25518227.916 971843.212 -397465.878 10 0 60980 54000.00000 0 -25362407.841 1142237.840 2819614.659 10 0 60980 54900.00000 0 -24806227.571 1248624.368 5982154.059 10 0 60980 55800.00000 0 -23870172.894 1238130.943 9029022.842 10 0 60980 56700.00000 0 -22587005.388 1063144.466 11901368.551 10 0 60980 57600.00000 0 -21000423.311 683549.988 14543734.689 10 0 60980 58500.00000 0 -19163289.976 68653.404 16905112.656 10 0 60980 59400.00000 0 -17135503.097 -801292.342 18939908.160 10 0 60980 60300.00000 0 -14981592.784 -1934020.982 20608805.266 10 0 60980 61200.00000 0 -12768146.588 -3324691.270 21879513.055 10 0 60980 62100.00000 0 -10561166.645 -4955854.146 22727381.913 10 0 60980 63000.00000 0 -8423466.580 -6797951.589 23135878.566 10 0 60980 63900.00000 0 -6412214.225 -8810328.551 23096911.142 10 0 60980 64800.00000 0 -4576720.404 -10942718.508 22610997.848 10 0 60980 65700.00000 0 -2956564.312 -13137143.915 21687275.209 10 0 60980 66600.00000 0 -1580132.731 -15330155.523 20343344.316 10 0 60980 67500.00000 0 -463633.794 -17455320.256 18604956.186 10 0 60980 68400.00000 0 389373.079 -19445856.422 16505540.050 10 0 60980 69300.00000 0 987910.411 -21237307.989 14085581.338 10 0 60980 70200.00000 0 1352980.590 -22770147.074 11391859.077 10 0 60980 71100.00000 0 1516452.386 -23992195.681 8476555.433 10 0 60980 72000.00000 0 1519481.706 -24860764.167 5396253.154 10 0 60980 72900.00000 0 1410532.408 -25344415.001 2210839.428 10 0 60980 73800.00000 0 1243080.579 -25424275.402 -1017662.758 10 0 60980 74700.00000 0 1073099.954 -25094841.161 -4226312.489 10 0 60980 75600.00000 0 956436.252 -24364235.362 -7352493.142 10 0 60980 76500.00000 0 946183.677 -23253909.089 -10335153.062 10 0 60980 77400.00000 0 1090177.298 -21797795.261 -13116018.427 10 0 60980 78300.00000 0 1428710.383 -20040950.557 -15640752.406 10 0 60980 79200.00000 0 1992576.244 -18037742.676 -17860035.913 10 0 60980 80100.00000 0 2801520.094 -15849659.995 -19730546.912 10 0 60980 81000.00000 0 3863168.594 -13542837.015 -21215817.716 10 0 60980 81900.00000 0 5172483.904 -11185401.107 -22286952.582 10 0 60980 82800.00000 0 6711766.199 -8844753.506 -22923191.192 10 0 60980 83700.00000 0 8451204.809 -6584899.891 -23112307.149 10 0 60980 84600.00000 0 10349954.474 -4463943.149 -22850834.389 10 0 60980 85500.00000 0 12357690.708 -2531843.470 -22144118.083 99